contact:dominique.lefevre@mio.osupytheas.fr, maurice.libes@osupytheas.fr, didier.mallarino@osupytheas.fr
Project:EMSO http://www.emso-fr.org/EMSO-France
Depth: 2436.0 m
Title:EMSO Ligure Ouest : Data MII capteur MICROCAT
DateTime_Computer,Latitude,Longitude,Temperature,Conductivity,Pressure,DateTime_Instrument
DateTime_Computer,Latitude,Longitude,degC,S m-1,dbar,DateTime_Instrument
2021-01-03T00:02:12Z,42.805,6.029,13.2988,4.59986,2470.11,2021-1-03T02:03:12Z
2021-01-03T00:05:15Z,42.805,6.029,13.2986,4.59987,2470.171,2021-1-03T02:06:15Z
2021-01-03T00:08:18Z,42.805,6.029,13.2983,4.59987,2470.124,2021-1-03T02:09:19Z
2021-01-03T00:11:21Z,42.805,6.029,13.2983,4.59986,2470.147,2021-1-03T02:12:22Z
2021-01-03T00:14:24Z,42.805,6.029,13.2982,4.59986,2470.147,2021-1-03T02:15:25Z
2021-01-03T00:17:28Z,42.805,6.029,13.2981,4.59986,2470.11,2021-1-03T02:18:28Z
2021-01-03T00:20:31Z,42.805,6.029,13.2980,4.59986,2470.124,2021-1-03T02:21:31Z
2021-01-03T00:23:34Z,42.805,6.029,13.2983,4.59986,2470.124,2021-1-03T02:24:34Z
2021-01-03T00:26:37Z,42.805,6.029,13.2982,4.59986,2470.124,2021-1-03T02:27:37Z
2021-01-03T00:29:40Z,42.805,6.029,13.2985,4.59986,2470.124,2021-1-03T02:30:40Z
2021-01-03T00:32:43Z,42.805,6.029,13.2982,4.59986,2470.087,2021-1-03T02:33:44Z
2021-01-03T00:35:46Z,42.805,6.029,13.2985,4.59987,2470.11,2021-1-03T02:36:47Z
2021-01-03T00:38:49Z,42.805,6.029,13.2986,4.59986,2470.11,2021-1-03T02:39:50Z
2021-01-03T00:41:52Z,42.805,6.029,13.2986,4.59986,2470.147,2021-1-03T02:42:53Z
2021-01-03T00:44:56Z,42.805,6.029,13.2983,4.59986,2470.087,2021-1-03T02:45:56Z
2021-01-03T00:47:59Z,42.805,6.029,13.2982,4.59987,2470.1,2021-1-03T02:48:59Z
2021-01-03T00:51:02Z,42.805,6.029,13.2983,4.59986,2470.11,2021-1-03T02:52:02Z
2021-01-03T00:54:05Z,42.805,6.029,13.2982,4.59986,2470.11,2021-1-03T02:55:05Z
2021-01-03T00:57:08Z,42.805,6.029,13.2984,4.59986,2470.133,2021-1-03T02:58:08Z
2021-01-03T01:00:11Z,42.805,6.029,13.2985,4.59991,2470.11,2021-1-03T03:01:12Z
2021-01-03T01:03:14Z,42.805,6.029,13.2985,4.59986,2470.063,2021-1-03T03:04:15Z
2021-01-03T01:06:17Z,42.805,6.029,13.2983,4.59986,2470.11,2021-1-03T03:07:18Z
2021-01-03T01:09:20Z,42.805,6.029,13.2982,4.59986,2470.11,2021-1-03T03:10:21Z
2021-01-03T01:12:24Z,42.805,6.029,13.2982,4.59988,2470.11,2021-1-03T03:13:24Z
2021-01-03T01:15:27Z,42.805,6.029,13.2982,4.59984,2470.087,2021-1-03T03:16:27Z
2021-01-03T01:18:30Z,42.805,6.029,13.2979,4.59986,2470.073,2021-1-03T03:19:30Z
2021-01-03T01:21:33Z,42.805,6.029,13.2985,4.59987,2470.11,2021-1-03T03:22:33Z
2021-01-03T01:24:36Z,42.805,6.029,13.2983,4.59986,2470.11,2021-1-03T03:25:37Z
2021-01-03T01:27:39Z,42.805,6.029,13.2983,4.59989,2470.1,2021-1-03T03:28:40Z
2021-01-03T01:30:42Z,42.805,6.029,13.2980,4.59987,2470.087,2021-1-03T03:31:43Z
2021-01-03T01:33:45Z,42.805,6.029,13.2982,4.59987,2470.133,2021-1-03T03:34:46Z
2021-01-03T01:36:49Z,42.805,6.029,13.2982,4.59986,2470.087,2021-1-03T03:37:49Z
2021-01-03T01:39:52Z,42.805,6.029,13.2981,4.59992,2470.1,2021-1-03T03:40:52Z
2021-01-03T01:42:55Z,42.805,6.029,13.2983,4.59986,2470.11,2021-1-03T03:43:55Z
2021-01-03T01:45:58Z,42.805,6.029,13.2985,4.59985,2470.087,2021-1-03T03:46:58Z
2021-01-03T01:49:01Z,42.805,6.029,13.2986,4.59986,2470.077,2021-1-03T03:50:02Z
2021-01-03T01:52:04Z,42.805,6.029,13.2979,4.59986,2470.1,2021-1-03T03:53:05Z
2021-01-03T01:55:07Z,42.805,6.029,13.2986,4.59986,2470.1,2021-1-03T03:56:08Z
2021-01-03T01:58:10Z,42.805,6.029,13.2984,4.59986,2470.087,2021-1-03T03:59:11Z
2021-01-03T02:01:14Z,42.805,6.029,13.2982,4.59986,2470.087,2021-1-03T04:02:14Z
2021-01-03T02:04:17Z,42.805,6.029,13.2982,4.59986,2470.063,2021-1-03T04:05:17Z
2021-01-03T02:07:20Z,42.805,6.029,13.2983,4.59986,2470.087,2021-1-03T04:08:20Z
2021-01-03T02:10:23Z,42.805,6.029,13.2983,4.59994,2470.087,2021-1-03T04:11:23Z
2021-01-03T02:13:26Z,42.805,6.029,13.2980,4.59986,2470.124,2021-1-03T04:14:26Z
2021-01-03T02:16:29Z,42.805,6.029,13.2983,4.59985,2470.087,2021-1-03T04:17:30Z
2021-01-03T02:19:32Z,42.805,6.029,13.2983,4.59986,2470.1,2021-1-03T04:20:33Z
2021-01-03T02:22:35Z,42.805,6.029,13.2983,4.59986,2470.063,2021-1-03T04:23:36Z
2021-01-03T02:25:38Z,42.805,6.029,13.2980,4.59986,2470.11,2021-1-03T04:26:39Z
2021-01-03T02:28:42Z,42.805,6.029,13.2982,4.59986,2470.077,2021-1-03T04:29:42Z
2021-01-03T02:31:45Z,42.805,6.029,13.2982,4.59992,2470.1,2021-1-03T04:32:45Z
2021-01-03T02:34:48Z,42.805,6.029,13.2983,4.59987,2470.11,2021-1-03T04:35:48Z
2021-01-03T02:37:51Z,42.805,6.029,13.2983,4.59986,2470.087,2021-1-03T04:38:51Z
2021-01-03T02:40:54Z,42.805,6.029,13.2983,4.59988,2470.063,2021-1-03T04:41:55Z
2021-01-03T02:43:57Z,42.805,6.029,13.2981,4.59985,2470.063,2021-1-03T04:44:58Z
2021-01-03T02:47:00Z,42.805,6.029,13.2976,4.59985,2470.077,2021-1-03T04:48:01Z
2021-01-03T02:50:03Z,42.805,6.029,13.2983,4.59986,2470.1,2021-1-03T04:51:04Z
2021-01-03T02:53:07Z,42.805,6.029,13.2979,4.59986,2470.053,2021-1-03T04:54:07Z
2021-01-03T02:56:10Z,42.805,6.029,13.2986,4.59986,2470.04,2021-1-03T04:57:10Z
2021-01-03T02:59:13Z,42.805,6.029,13.2988,4.59985,2470.063,2021-1-03T05:00:13Z
2021-01-03T03:02:16Z,42.805,6.029,13.2985,4.59986,2470.053,2021-1-03T05:03:16Z
2021-01-03T03:05:19Z,42.805,6.029,13.2983,4.59986,2470.04,2021-1-03T05:06:19Z
2021-01-03T03:08:22Z,42.805,6.029,13.2978,4.59986,2470.063,2021-1-03T05:09:23Z
2021-01-03T03:11:25Z,42.805,6.029,13.2983,4.59986,2470.049,2021-1-03T05:12:26Z
2021-01-03T03:14:28Z,42.805,6.029,13.2986,4.59986,2470.063,2021-1-03T05:15:29Z
2021-01-03T03:17:31Z,42.805,6.029,13.2980,4.59985,2470.04,2021-1-03T05:18:32Z
2021-01-03T03:20:35Z,42.805,6.029,13.2982,4.59985,2470.063,2021-1-03T05:21:35Z
2021-01-03T03:23:38Z,42.805,6.029,13.2981,4.59984,2470.077,2021-1-03T05:24:38Z
2021-01-03T03:26:41Z,42.805,6.029,13.2984,4.59986,2470.077,2021-1-03T05:27:41Z
2021-01-03T03:29:44Z,42.805,6.029,13.2982,4.59985,2470.077,2021-1-03T05:30:44Z
2021-01-03T03:32:47Z,42.805,6.029,13.2985,4.59986,2470.063,2021-1-03T05:33:48Z
2021-01-03T03:35:50Z,42.805,6.029,13.2983,4.59985,2470.04,2021-1-03T05:36:51Z
2021-01-03T03:38:53Z,42.805,6.029,13.2982,4.59991,2470.04,2021-1-03T05:39:54Z
2021-01-03T03:41:56Z,42.805,6.029,13.2982,4.59986,2470.017,2021-1-03T05:42:57Z
2021-01-03T03:45:00Z,42.805,6.029,13.2986,4.59990,2470.04,2021-1-03T05:46:00Z
2021-01-03T03:48:03Z,42.805,6.029,13.2984,4.59986,2470.063,2021-1-03T05:49:03Z
2021-01-03T03:51:06Z,42.805,6.029,13.2981,4.59986,2470.077,2021-1-03T05:52:06Z
2021-01-03T03:54:09Z,42.805,6.029,13.2982,4.59984,2470.1,2021-1-03T05:55:09Z
2021-01-03T03:57:12Z,42.805,6.029,13.2986,4.59986,2470.077,2021-1-03T05:58:12Z
2021-01-03T04:00:15Z,42.805,6.029,13.2986,4.59985,2470.04,2021-1-03T06:01:16Z
2021-01-03T04:03:18Z,42.805,6.029,13.2983,4.59986,2470.077,2021-1-03T06:04:19Z
2021-01-03T04:06:21Z,42.805,6.029,13.2982,4.59986,2470.077,2021-1-03T06:07:22Z
2021-01-03T04:09:24Z,42.805,6.029,13.2983,4.59988,2470.077,2021-1-03T06:10:25Z
2021-01-03T04:12:28Z,42.805,6.029,13.2982,4.59986,2470.04,2021-1-03T06:13:28Z
2021-01-03T04:15:31Z,42.805,6.029,13.2983,4.59984,2470.03,2021-1-03T06:16:31Z
2021-01-03T04:18:34Z,42.805,6.029,13.2986,4.59991,2470.04,2021-1-03T06:19:34Z
2021-01-03T04:21:37Z,42.805,6.029,13.2981,4.59986,2470.04,2021-1-03T06:22:37Z
2021-01-03T04:24:40Z,42.805,6.029,13.2981,4.59986,2470.053,2021-1-03T06:25:40Z
2021-01-03T04:27:43Z,42.805,6.029,13.2983,4.59986,2470.077,2021-1-03T06:28:44Z
2021-01-03T04:30:46Z,42.805,6.029,13.2983,4.59986,2470.063,2021-1-03T06:31:47Z
2021-01-03T04:33:49Z,42.805,6.029,13.2981,4.59986,2470.063,2021-1-03T06:34:50Z
2021-01-03T04:36:53Z,42.805,6.029,13.2983,4.59986,2470.04,2021-1-03T06:37:53Z
2021-01-03T04:39:56Z,42.805,6.029,13.2983,4.59986,2470.077,2021-1-03T06:40:56Z
2021-01-03T04:42:59Z,42.805,6.029,13.2983,4.59986,2470.04,2021-1-03T06:43:59Z
2021-01-03T04:46:02Z,42.805,6.029,13.2986,4.59989,2470.063,2021-1-03T06:47:02Z
2021-01-03T04:49:05Z,42.805,6.029,13.2982,4.59989,2470.087,2021-1-03T06:50:05Z
2021-01-03T04:52:08Z,42.805,6.029,13.2983,4.59985,2470.04,2021-1-03T06:53:09Z
2021-01-03T04:55:11Z,42.805,6.029,13.2982,4.59986,2470.124,2021-1-03T06:56:12Z
2021-01-03T04:58:14Z,42.805,6.029,13.2986,4.59986,2470.087,2021-1-03T06:59:15Z
2021-01-03T05:01:17Z,42.805,6.029,13.2986,4.59985,2470.077,2021-1-03T07:02:18Z
2021-01-03T05:04:21Z,42.805,6.029,13.2983,4.59986,2470.063,2021-1-03T07:05:21Z
2021-01-03T05:07:24Z,42.805,6.029,13.2984,4.59986,2470.1,2021-1-03T07:08:24Z
2021-01-03T05:10:27Z,42.805,6.029,13.2981,4.59987,2470.087,2021-1-03T07:11:27Z
2021-01-03T05:13:30Z,42.805,6.029,13.2984,4.59986,2470.053,2021-1-03T07:14:30Z
2021-01-03T05:16:33Z,42.805,6.029,13.2980,4.59987,2470.1,2021-1-03T07:17:33Z
2021-01-03T05:19:36Z,42.805,6.029,13.2982,4.59986,2470.04,2021-1-03T07:20:37Z
2021-01-03T05:22:39Z,42.805,6.029,13.2985,4.59986,2470.063,2021-1-03T07:23:40Z
2021-01-03T05:25:42Z,42.805,6.029,13.2984,4.59986,2470.087,2021-1-03T07:26:43Z
2021-01-03T05:28:46Z,42.805,6.029,13.2982,4.59988,2470.124,2021-1-03T07:29:46Z
2021-01-03T05:31:49Z,42.805,6.029,13.2986,4.59986,2470.087,2021-1-03T07:32:49Z
2021-01-03T05:34:52Z,42.805,6.029,13.2983,4.59986,2470.11,2021-1-03T07:35:52Z
2021-01-03T05:37:55Z,42.805,6.029,13.2985,4.59986,2470.147,2021-1-03T07:38:55Z
2021-01-03T05:40:58Z,42.805,6.029,13.2986,4.59987,2470.133,2021-1-03T07:41:58Z
2021-01-03T05:44:01Z,42.805,6.029,13.2986,4.59986,2470.11,2021-1-03T07:45:02Z
2021-01-03T05:47:04Z,42.805,6.029,13.2984,4.59987,2470.063,2021-1-03T07:48:05Z
2021-01-03T05:50:07Z,42.805,6.029,13.2983,4.59986,2470.124,2021-1-03T07:51:08Z
2021-01-03T05:53:10Z,42.805,6.029,13.2986,4.59986,2470.11,2021-1-03T07:54:11Z
2021-01-03T05:56:14Z,42.805,6.029,13.2985,4.59986,2470.11,2021-1-03T07:57:14Z
2021-01-03T05:59:17Z,42.805,6.029,13.2983,4.59986,2470.11,2021-1-03T08:00:17Z
2021-01-03T06:02:20Z,42.805,6.029,13.2982,4.59986,2470.124,2021-1-03T08:03:20Z
2021-01-03T06:05:23Z,42.805,6.029,13.2979,4.59986,2470.156,2021-1-03T08:06:23Z
2021-01-03T06:08:26Z,42.805,6.029,13.2985,4.59986,2470.133,2021-1-03T08:09:26Z
2021-01-03T06:11:29Z,42.805,6.029,13.2982,4.59991,2470.124,2021-1-03T08:12:30Z
2021-01-03T06:14:32Z,42.805,6.029,13.2985,4.59986,2470.133,2021-1-03T08:15:33Z
2021-01-03T06:17:35Z,42.805,6.029,13.2984,4.59986,2470.11,2021-1-03T08:18:36Z
2021-01-03T06:20:39Z,42.805,6.029,13.2985,4.59986,2470.11,2021-1-03T08:21:39Z
2021-01-03T06:23:42Z,42.805,6.029,13.2985,4.59986,2470.124,2021-1-03T08:24:42Z
2021-01-03T06:26:45Z,42.805,6.029,13.2983,4.59986,2470.133,2021-1-03T08:27:45Z
2021-01-03T06:29:48Z,42.805,6.029,13.2980,4.59990,2470.171,2021-1-03T08:30:48Z
2021-01-03T06:32:51Z,42.805,6.029,13.2984,4.59987,2470.156,2021-1-03T08:33:51Z
2021-01-03T06:35:54Z,42.805,6.029,13.2982,4.59988,2470.156,2021-1-03T08:36:55Z
2021-01-03T06:38:57Z,42.805,6.029,13.2986,4.59986,2470.18,2021-1-03T08:39:58Z
2021-01-03T06:42:00Z,42.805,6.029,13.2981,4.59988,2470.194,2021-1-03T08:43:01Z
2021-01-03T06:45:03Z,42.805,6.029,13.2986,4.59986,2470.133,2021-1-03T08:46:04Z
2021-01-03T06:48:07Z,42.805,6.029,13.2988,4.59989,2470.156,2021-1-03T08:49:07Z
2021-01-03T06:51:10Z,42.805,6.029,13.2983,4.59986,2470.119,2021-1-03T08:52:10Z
2021-01-03T06:54:13Z,42.805,6.029,13.2986,4.59987,2470.18,2021-1-03T08:55:13Z
2021-01-03T06:57:16Z,42.805,6.029,13.2983,4.59987,2470.194,2021-1-03T08:58:16Z
2021-01-03T07:00:19Z,42.805,6.029,13.2986,4.59986,2470.156,2021-1-03T09:01:20Z
2021-01-03T07:03:22Z,42.805,6.029,13.2983,4.59986,2470.171,2021-1-03T09:04:23Z
2021-01-03T07:06:25Z,42.805,6.029,13.2982,4.59987,2470.203,2021-1-03T09:07:26Z
2021-01-03T07:09:28Z,42.805,6.029,13.2983,4.59988,2470.194,2021-1-03T09:10:29Z
2021-01-03T07:12:32Z,42.805,6.029,13.2986,4.59988,2470.217,2021-1-03T09:13:32Z
2021-01-03T07:15:35Z,42.805,6.029,13.2983,4.59988,2470.18,2021-1-03T09:16:35Z
2021-01-03T07:18:38Z,42.805,6.029,13.2984,4.59988,2470.194,2021-1-03T09:19:38Z
2021-01-03T07:21:41Z,42.805,6.029,13.2984,4.59988,2470.217,2021-1-03T09:22:41Z
2021-01-03T07:24:44Z,42.805,6.029,13.2986,4.59988,2470.203,2021-1-03T09:25:44Z
2021-01-03T07:27:47Z,42.805,6.029,13.2990,4.59988,2470.24,2021-1-03T09:28:48Z
2021-01-03T07:30:50Z,42.805,6.029,13.2981,4.59990,2470.217,2021-1-03T09:31:51Z
2021-01-03T07:33:53Z,42.805,6.029,13.2982,4.59989,2470.227,2021-1-03T09:34:54Z
2021-01-03T07:36:56Z,42.805,6.029,13.2983,4.59989,2470.203,2021-1-03T09:37:57Z
2021-01-03T07:40:00Z,42.805,6.029,13.2986,4.59988,2470.227,2021-1-03T09:41:00Z
2021-01-03T07:43:03Z,42.805,6.029,13.2986,4.59988,2470.24,2021-1-03T09:44:03Z
2021-01-03T07:46:06Z,42.805,6.029,13.2986,4.59989,2470.24,2021-1-03T09:47:06Z
2021-01-03T07:49:09Z,42.805,6.029,13.2988,4.59989,2470.227,2021-1-03T09:50:09Z
2021-01-03T07:52:12Z,42.805,6.029,13.2986,4.59988,2470.227,2021-1-03T09:53:13Z
2021-01-03T07:55:15Z,42.805,6.029,13.2988,4.59989,2470.227,2021-1-03T09:56:16Z
2021-01-03T07:58:18Z,42.805,6.029,13.2985,4.59990,2470.264,2021-1-03T09:59:19Z
2021-01-03T08:01:21Z,42.805,6.029,13.2986,4.59989,2470.273,2021-1-03T10:02:22Z
2021-01-03T08:04:25Z,42.805,6.029,13.2986,4.59989,2470.264,2021-1-03T10:05:25Z
2021-01-03T08:07:28Z,42.805,6.029,13.2985,4.59988,2470.25,2021-1-03T10:08:28Z
2021-01-03T08:10:31Z,42.805,6.029,13.2990,4.59989,2470.273,2021-1-03T10:11:31Z
2021-01-03T08:13:34Z,42.805,6.029,13.2988,4.59989,2470.273,2021-1-03T10:14:34Z
2021-01-03T08:16:37Z,42.805,6.029,13.2989,4.59989,2470.25,2021-1-03T10:17:37Z
2021-01-03T08:19:40Z,42.805,6.029,13.2985,4.59990,2470.25,2021-1-03T10:20:41Z
2021-01-03T08:22:43Z,42.805,6.029,13.2984,4.59992,2470.25,2021-1-03T10:23:44Z
2021-01-03T08:25:46Z,42.805,6.029,13.2987,4.59990,2470.264,2021-1-03T10:26:47Z
2021-01-03T08:28:49Z,42.805,6.029,13.2984,4.59992,2470.273,2021-1-03T10:29:50Z
2021-01-03T08:31:53Z,42.805,6.029,13.2986,4.59993,2470.264,2021-1-03T10:32:53Z
2021-01-03T08:34:56Z,42.805,6.029,13.2989,4.59990,2470.273,2021-1-03T10:35:56Z
2021-01-03T08:37:59Z,42.805,6.029,13.2988,4.59991,2470.297,2021-1-03T10:38:59Z
2021-01-03T08:41:02Z,42.805,6.029,13.2989,4.59991,2470.31,2021-1-03T10:42:02Z
2021-01-03T08:44:05Z,42.805,6.029,13.2986,4.59991,2470.297,2021-1-03T10:45:06Z
2021-01-03T08:47:08Z,42.805,6.029,13.2987,4.59991,2470.297,2021-1-03T10:48:09Z
2021-01-03T08:50:11Z,42.805,6.029,13.2985,4.59991,2470.31,2021-1-03T10:51:12Z
2021-01-03T08:53:15Z,42.805,6.029,13.2989,4.59991,2470.273,2021-1-03T10:54:15Z
2021-01-03T08:56:18Z,42.805,6.029,13.2986,4.59996,2470.32,2021-1-03T10:57:18Z
2021-01-03T08:59:21Z,42.805,6.029,13.2984,4.59991,2470.297,2021-1-03T11:00:21Z
2021-01-03T09:02:24Z,42.805,6.029,13.2986,4.59991,2470.297,2021-1-03T11:03:24Z
2021-01-03T09:05:27Z,42.805,6.029,13.2990,4.59991,2470.31,2021-1-03T11:06:27Z
2021-01-03T09:08:30Z,42.805,6.029,13.2986,4.59991,2470.297,2021-1-03T11:09:31Z
2021-01-03T09:11:33Z,42.805,6.029,13.2985,4.59991,2470.306,2021-1-03T11:12:34Z
2021-01-03T09:14:36Z,42.805,6.029,13.2986,4.59991,2470.273,2021-1-03T11:15:37Z
2021-01-03T09:17:39Z,42.805,6.029,13.2987,4.59991,2470.31,2021-1-03T11:18:40Z
2021-01-03T09:20:43Z,42.805,6.029,13.2986,4.59992,2470.32,2021-1-03T11:21:43Z
2021-01-03T09:23:46Z,42.805,6.029,13.2985,4.59991,2470.297,2021-1-03T11:24:46Z
2021-01-03T09:26:49Z,42.805,6.029,13.2990,4.59991,2470.32,2021-1-03T11:27:49Z
2021-01-03T09:29:52Z,42.805,6.029,13.2989,4.59993,2470.343,2021-1-03T11:30:52Z
2021-01-03T09:32:55Z,42.805,6.029,13.2991,4.59991,2470.297,2021-1-03T11:33:56Z
2021-01-03T09:35:58Z,42.805,6.029,13.2987,4.59991,2470.343,2021-1-03T11:36:59Z
2021-01-03T09:39:01Z,42.805,6.029,13.2990,4.59992,2470.297,2021-1-03T11:40:02Z
2021-01-03T09:42:04Z,42.805,6.029,13.2989,4.59992,2470.32,2021-1-03T11:43:05Z
2021-01-03T09:45:08Z,42.805,6.029,13.2992,4.59992,2470.32,2021-1-03T11:46:08Z
2021-01-03T09:48:11Z,42.805,6.029,13.2987,4.59991,2470.32,2021-1-03T11:49:11Z
2021-01-03T09:51:14Z,42.805,6.029,13.2989,4.59992,2470.297,2021-1-03T11:52:14Z
2021-01-03T09:54:17Z,42.805,6.029,13.2991,4.59992,2470.32,2021-1-03T11:55:17Z
2021-01-03T09:57:20Z,42.805,6.029,13.2991,4.59992,2470.32,2021-1-03T11:58:21Z
2021-01-03T10:00:23Z,42.805,6.029,13.2990,4.59991,2470.297,2021-1-03T12:01:24Z
2021-01-03T10:03:26Z,42.805,6.029,13.2989,4.59993,2470.334,2021-1-03T12:04:27Z
2021-01-03T10:06:29Z,42.805,6.029,13.2990,4.59992,2470.343,2021-1-03T12:07:30Z
2021-01-03T10:09:33Z,42.805,6.029,13.2991,4.59998,2470.357,2021-1-03T12:10:33Z
2021-01-03T10:12:36Z,42.805,6.029,13.2987,4.59993,2470.297,2021-1-03T12:13:36Z
2021-01-03T10:15:39Z,42.805,6.029,13.2986,4.59992,2470.334,2021-1-03T12:16:39Z
2021-01-03T10:18:42Z,42.805,6.029,13.2987,4.59994,2470.334,2021-1-03T12:19:42Z
2021-01-03T10:21:45Z,42.805,6.029,13.2991,4.59992,2470.357,2021-1-03T12:22:46Z
2021-01-03T10:24:48Z,42.805,6.029,13.2991,4.59997,2470.306,2021-1-03T12:25:49Z
2021-01-03T10:27:51Z,42.805,6.029,13.2987,4.59997,2470.334,2021-1-03T12:28:52Z
2021-01-03T10:30:54Z,42.805,6.029,13.2990,4.59996,2470.31,2021-1-03T12:31:55Z
2021-01-03T10:33:58Z,42.805,6.029,13.2989,4.59993,2470.287,2021-1-03T12:34:58Z
2021-01-03T10:37:01Z,42.805,6.029,13.2986,4.59993,2470.273,2021-1-03T12:38:01Z
2021-01-03T10:40:04Z,42.805,6.029,13.2986,4.59992,2470.297,2021-1-03T12:41:04Z
2021-01-03T10:43:07Z,42.805,6.029,13.2988,4.59991,2470.297,2021-1-03T12:44:07Z
2021-01-03T10:46:10Z,42.805,6.029,13.2986,4.59994,2470.32,2021-1-03T12:47:11Z
2021-01-03T10:49:13Z,42.805,6.029,13.2987,4.59993,2470.334,2021-1-03T12:50:14Z
2021-01-03T10:52:16Z,42.805,6.029,13.2989,4.59992,2470.32,2021-1-03T12:53:17Z
2021-01-03T10:55:19Z,42.805,6.029,13.2992,4.59992,2470.334,2021-1-03T12:56:20Z
2021-01-03T10:58:23Z,42.805,6.029,13.2988,4.59992,2470.343,2021-1-03T12:59:23Z
2021-01-03T11:01:26Z,42.805,6.029,13.2990,4.59992,2470.297,2021-1-03T13:02:26Z
2021-01-03T11:04:29Z,42.805,6.029,13.2990,4.59992,2470.287,2021-1-03T13:05:29Z
2021-01-03T11:07:32Z,42.805,6.029,13.2990,4.59994,2470.32,2021-1-03T13:08:32Z
2021-01-03T11:10:35Z,42.805,6.029,13.2983,4.59992,2470.31,2021-1-03T13:11:35Z
2021-01-03T11:13:38Z,42.805,6.029,13.2988,4.59991,2470.334,2021-1-03T13:14:39Z
2021-01-03T11:16:41Z,42.805,6.029,13.2985,4.59996,2470.287,2021-1-03T13:17:42Z
2021-01-03T11:19:44Z,42.805,6.029,13.2986,4.59991,2470.297,2021-1-03T13:20:45Z
2021-01-03T11:22:48Z,42.805,6.029,13.2986,4.59991,2470.334,2021-1-03T13:23:48Z
2021-01-03T11:25:51Z,42.805,6.029,13.2986,4.59994,2470.273,2021-1-03T13:26:51Z
2021-01-03T11:28:54Z,42.805,6.029,13.2986,4.59991,2470.297,2021-1-03T13:29:54Z
2021-01-03T11:31:57Z,42.805,6.029,13.2984,4.59991,2470.297,2021-1-03T13:32:57Z
2021-01-03T11:35:00Z,42.805,6.029,13.2990,4.59995,2470.287,2021-1-03T13:36:00Z
2021-01-03T11:38:03Z,42.805,6.029,13.2987,4.59991,2470.297,2021-1-03T13:39:04Z
2021-01-03T11:41:06Z,42.805,6.029,13.2986,4.59991,2470.25,2021-1-03T13:42:07Z
2021-01-03T11:44:09Z,42.805,6.029,13.2990,4.59991,2470.273,2021-1-03T13:45:10Z
2021-01-03T11:47:12Z,42.805,6.029,13.2989,4.59991,2470.273,2021-1-03T13:48:13Z
2021-01-03T11:50:16Z,42.805,6.029,13.2984,4.59994,2470.287,2021-1-03T13:51:16Z
2021-01-03T11:53:19Z,42.805,6.029,13.2986,4.59991,2470.31,2021-1-03T13:54:19Z
2021-01-03T11:56:22Z,42.805,6.029,13.2987,4.59994,2470.227,2021-1-03T13:57:22Z
2021-01-03T11:59:25Z,42.805,6.029,13.2983,4.59991,2470.273,2021-1-03T14:00:25Z
2021-01-03T12:02:28Z,42.805,6.029,13.2984,4.59992,2470.264,2021-1-03T14:03:29Z
2021-01-03T12:05:31Z,42.805,6.029,13.2991,4.59991,2470.273,2021-1-03T14:06:32Z
2021-01-03T12:08:34Z,42.805,6.029,13.2988,4.59996,2470.25,2021-1-03T14:09:35Z
2021-01-03T12:11:37Z,42.805,6.029,13.2988,4.59993,2470.227,2021-1-03T14:12:38Z
2021-01-03T12:14:41Z,42.805,6.029,13.2993,4.59992,2470.31,2021-1-03T14:15:41Z
2021-01-03T12:17:44Z,42.805,6.029,13.2991,4.59991,2470.297,2021-1-03T14:18:44Z
2021-01-03T12:20:47Z,42.805,6.029,13.2986,4.59996,2470.273,2021-1-03T14:21:47Z
2021-01-03T12:23:50Z,42.805,6.029,13.2986,4.59991,2470.287,2021-1-03T14:24:50Z
2021-01-03T12:26:53Z,42.805,6.029,13.2989,4.59994,2470.273,2021-1-03T14:27:54Z
2021-01-03T12:29:56Z,42.805,6.029,13.2986,4.59994,2470.227,2021-1-03T14:30:57Z
2021-01-03T12:32:59Z,42.805,6.029,13.2987,4.59991,2470.25,2021-1-03T14:34:00Z
2021-01-03T12:36:02Z,42.805,6.029,13.2988,4.59991,2470.264,2021-1-03T14:37:03Z
2021-01-03T12:39:06Z,42.805,6.029,13.2986,4.59991,2470.287,2021-1-03T14:40:06Z
2021-01-03T12:42:09Z,42.805,6.029,13.2986,4.59991,2470.273,2021-1-03T14:43:09Z
2021-01-03T12:45:12Z,42.805,6.029,13.2988,4.59991,2470.264,2021-1-03T14:46:12Z
2021-01-03T12:48:15Z,42.805,6.029,13.2988,4.59994,2470.25,2021-1-03T14:49:15Z
2021-01-03T12:51:18Z,42.805,6.029,13.2989,4.59992,2470.203,2021-1-03T14:52:19Z
2021-01-03T12:54:21Z,42.805,6.029,13.2988,4.59992,2470.227,2021-1-03T14:55:22Z
2021-01-03T12:57:24Z,42.805,6.029,13.2985,4.59991,2470.273,2021-1-03T14:58:25Z
2021-01-03T13:00:27Z,42.805,6.029,13.2986,4.59991,2470.264,2021-1-03T15:01:28Z
2021-01-03T13:03:31Z,42.805,6.029,13.2987,4.59991,2470.25,2021-1-03T15:04:31Z
2021-01-03T13:06:34Z,42.805,6.029,13.2991,4.59992,2470.25,2021-1-03T15:07:34Z
2021-01-03T13:09:37Z,42.805,6.029,13.2989,4.59991,2470.213,2021-1-03T15:10:37Z
2021-01-03T13:12:40Z,42.805,6.029,13.2985,4.59991,2470.227,2021-1-03T15:13:40Z
2021-01-03T13:15:43Z,42.805,6.029,13.2983,4.59991,2470.264,2021-1-03T15:16:44Z
2021-01-03T13:18:46Z,42.805,6.029,13.2987,4.59991,2470.25,2021-1-03T15:19:47Z
2021-01-03T13:21:49Z,42.805,6.029,13.2987,4.59991,2470.24,2021-1-03T15:22:50Z
2021-01-03T13:24:52Z,42.805,6.029,13.2988,4.59991,2470.264,2021-1-03T15:25:53Z
2021-01-03T13:27:56Z,42.805,6.029,13.2986,4.59991,2470.227,2021-1-03T15:28:56Z
2021-01-03T13:30:59Z,42.805,6.029,13.2986,4.59991,2470.217,2021-1-03T15:31:59Z
2021-01-03T13:34:02Z,42.805,6.029,13.2988,4.59991,2470.203,2021-1-03T15:35:02Z
2021-01-03T13:37:05Z,42.805,6.029,13.2987,4.59991,2470.24,2021-1-03T15:38:05Z
2021-01-03T13:40:08Z,42.805,6.029,13.2986,4.59991,2470.217,2021-1-03T15:41:09Z
2021-01-03T13:43:11Z,42.805,6.029,13.2987,4.59991,2470.203,2021-1-03T15:44:12Z
2021-01-03T13:46:14Z,42.805,6.029,13.2984,4.59991,2470.227,2021-1-03T15:47:15Z
2021-01-03T13:49:17Z,42.805,6.029,13.2984,4.59991,2470.203,2021-1-03T15:50:18Z
2021-01-03T13:52:21Z,42.805,6.029,13.2983,4.59994,2470.24,2021-1-03T15:53:21Z
2021-01-03T13:55:24Z,42.805,6.029,13.2986,4.59996,2470.24,2021-1-03T15:56:24Z
2021-01-03T13:58:27Z,42.805,6.029,13.2988,4.59991,2470.25,2021-1-03T15:59:27Z
2021-01-03T14:01:30Z,42.805,6.029,13.2988,4.59991,2470.24,2021-1-03T16:02:30Z
2021-01-03T14:04:33Z,42.805,6.029,13.2987,4.59991,2470.217,2021-1-03T16:05:34Z
2021-01-03T14:07:36Z,42.805,6.029,13.2988,4.59992,2470.203,2021-1-03T16:08:37Z
2021-01-03T14:10:39Z,42.805,6.029,13.2989,4.59999,2470.227,2021-1-03T16:11:40Z
2021-01-03T14:13:42Z,42.805,6.029,13.2988,4.59993,2470.24,2021-1-03T16:14:43Z
2021-01-03T14:16:46Z,42.805,6.029,13.2990,4.59996,2470.217,2021-1-03T16:17:46Z
2021-01-03T14:19:49Z,42.805,6.029,13.2989,4.59991,2470.227,2021-1-03T16:20:49Z
2021-01-03T14:22:52Z,42.805,6.029,13.2988,4.59992,2470.194,2021-1-03T16:23:52Z
2021-01-03T14:25:55Z,42.805,6.029,13.2990,4.59996,2470.171,2021-1-03T16:26:55Z
2021-01-03T14:28:58Z,42.805,6.029,13.2990,4.59991,2470.217,2021-1-03T16:29:58Z
2021-01-03T14:32:01Z,42.805,6.029,13.2983,4.59991,2470.194,2021-1-03T16:33:02Z
2021-01-03T14:35:04Z,42.805,6.029,13.2988,4.59990,2470.203,2021-1-03T16:36:05Z
2021-01-03T14:38:07Z,42.805,6.029,13.2983,4.59994,2470.194,2021-1-03T16:39:08Z
2021-01-03T14:41:10Z,42.805,6.029,13.2989,4.59991,2470.156,2021-1-03T16:42:11Z
2021-01-03T14:44:14Z,42.805,6.029,13.2989,4.59992,2470.156,2021-1-03T16:45:14Z
2021-01-03T14:47:17Z,42.805,6.029,13.2986,4.59990,2470.156,2021-1-03T16:48:17Z
2021-01-03T14:50:20Z,42.805,6.029,13.2990,4.59989,2470.156,2021-1-03T16:51:20Z
2021-01-03T14:53:23Z,42.805,6.029,13.2986,4.59991,2470.18,2021-1-03T16:54:23Z
2021-01-03T14:56:26Z,42.805,6.029,13.2988,4.59991,2470.18,2021-1-03T16:57:27Z
2021-01-03T14:59:29Z,42.805,6.029,13.2985,4.59991,2470.171,2021-1-03T17:00:30Z
2021-01-03T15:02:32Z,42.805,6.029,13.2985,4.59990,2470.194,2021-1-03T17:03:33Z
2021-01-03T15:05:35Z,42.805,6.029,13.2984,4.59991,2470.156,2021-1-03T17:06:36Z
2021-01-03T15:08:39Z,42.805,6.029,13.2988,4.59996,2470.194,2021-1-03T17:09:39Z
2021-01-03T15:11:42Z,42.805,6.029,13.2983,4.59989,2470.171,2021-1-03T17:12:42Z
2021-01-03T15:14:45Z,42.805,6.029,13.2984,4.59989,2470.133,2021-1-03T17:15:45Z